TimeMDT,TemperatureF,Dew PointF,Humidity,Sea Level PressureIn,VisibilityMPH,Wind Direction,Wind SpeedMPH,Gust SpeedMPH,PrecipitationIn,Events,Conditions,WindDirDegrees,DateUTC
12:53 AM,45.0,39.9,82,29.96,10.0,SSW,6.9,-,N/A,,Clear,210,2013-03-30 06:53:00
1:53 AM,45.0,41.0,86,29.96,9.0,SSW,5.8,-,N/A,,Clear,200,2013-03-30 07:53:00
2:53 AM,43.0,39.9,89,29.96,8.0,SW,3.5,-,N/A,,Clear,220,2013-03-30 08:53:00
3:53 AM,39.9,37.9,93,29.96,7.0,SSW,5.8,-,N/A,,Clear,210,2013-03-30 09:53:00
4:53 AM,37.0,35.1,93,29.97,9.0,SW,6.9,-,N/A,,Clear,230,2013-03-30 10:53:00
5:53 AM,37.9,33.1,83,29.99,10.0,SW,6.9,-,N/A,,Clear,220,2013-03-30 11:53:00
6:53 AM,37.0,32.0,82,30.03,10.0,SSW,6.9,-,N/A,,Clear,210,2013-03-30 12:53:00
7:53 AM,45.0,36.0,71,30.04,10.0,WSW,6.9,-,N/A,,Clear,240,2013-03-30 13:53:00
8:53 AM,54.0,34.0,47,30.01,10.0,West,6.9,-,N/A,,Clear,280,2013-03-30 14:53:00
9:53 AM,59.0,34.0,39,29.99,10.0,Variable,4.6,-,N/A,,Clear,0,2013-03-30 15:53:00
10:53 AM,68.0,30.9,25,29.96,10.0,NNE,15.0,20.7,N/A,,Clear,20,2013-03-30 16:53:00
11:53 AM,69.1,28.0,22,29.96,10.0,NW,5.8,-,N/A,,Clear,320,2013-03-30 17:53:00
12:53 PM,70.0,28.0,21,29.94,10.0,NNW,10.4,-,N/A,,Clear,340,2013-03-30 18:53:00
1:53 PM,72.0,27.0,19,29.92,10.0,North,9.2,-,N/A,,Clear,10,2013-03-30 19:53:00
2:53 PM,72.0,26.1,18,29.90,10.0,NNE,6.9,19.6,N/A,,Clear,30,2013-03-30 20:53:00
3:53 PM,72.0,25.0,17,29.87,10.0,East,10.4,-,N/A,,Clear,100,2013-03-30 21:53:00
4:53 PM,70.0,25.0,18,29.86,10.0,ENE,9.2,-,N/A,,Clear,60,2013-03-30 22:53:00
5:53 PM,72.0,23.0,16,29.85,10.0,Variable,6.9,-,N/A,,Clear,0,2013-03-30 23:53:00
6:53 PM,66.9,25.0,21,29.88,10.0,ENE,8.1,-,N/A,,Scattered Clouds,60,2013-03-31 00:53:00
7:53 PM,61.0,27.0,27,29.92,10.0,NNE,9.2,-,N/A,,Scattered Clouds,20,2013-03-31 01:53:00
8:53 PM,55.9,39.0,53,30.00,10.0,NNE,20.7,28.8,N/A,,Overcast,30,2013-03-31 02:53:00
9:53 PM,54.0,39.0,57,30.05,10.0,ENE,15.0,21.9,N/A,,Overcast,60,2013-03-31 03:53:00
10:53 PM,50.0,45.0,83,30.05,9.0,ENE,8.1,-,0.02,Rain,Light Rain,70,2013-03-31 04:53:00
11:53 PM,50.0,44.1,80,30.06,10.0,NE,4.6,-,0.01,,Overcast,40,2013-03-31 05:53:00